Location: Northcutt
(34.7304°N, 84.4305°W)
Time: 18:09:39
(UTC+00:00)

SR - Pass Details

Date: 14 October 2022
Orbit: 577 x 874 km, 66.7° (Epoch: 05 December)

Event Time Altitude Azimuth Distance (km) Brightness Sun altitude
Rises 22:15:45 0° 179° (S) 3,398 ? 8.9°
Reaches altitude 10° 22:18:25 10° 170° (S) 2,490 ? 8.3°
Maximum altitude 22:23:32 33° 108° (ESE) 1,436 ? 7.3°
Drops below altitude 10° 22:28:42 10° 47° (NE) 2,521 ? 6.3°
Sets 22:31:24 0° 38° (NE) 3,446 ? 5.8°
